<?xml version="1.0" encoding="UTF-8" standalone="no" ?>
<gpx xmlns="http://www.topografix.com/GPX/1/1" xmlns:xsi="http://www.w3.org/2001/XMLSchema-instance" xsi:schemaLocation="http://www.topografix.com/GPX/1/1 http://www.topografix.com/GPX/1/1/gpx.xsd" version="1.1" creator="VisuGPX - https://www.visugpx.com">
  <metadata>
    <name>Boucle dans les Maures autour du Treps - 8158 - UtagawaVTT.com</name>
  </metadata>
  <trk>
    <name><![CDATA[Boucle dans les Maures autour du Treps - 8158 - UtagawaVTT.com]]></name>
    <trkseg>
      <trkpt lat="43.38989" lon="6.34232">
        <ele>124.762497</ele>
        <time>2013-11-06T16:38:56Z</time>
      </trkpt>
      <trkpt lat="43.38952" lon="6.34218">
        <ele>124.122498</ele>
        <time>2013-11-06T16:38:56Z</time>
      </trkpt>
      <trkpt lat="43.38921" lon="6.34279">
        <ele>122.455002</ele>
        <time>1999-11-30T00:00:00Z</time>
      </trkpt>
      <trkpt lat="43.3846" lon="6.3382">
        <ele>130.212494</ele>
        <time>2013-11-06T16:38:56Z</time>
      </trkpt>
      <trkpt lat="43.38492" lon="6.33743">
        <ele>131.578766</ele>
        <time>2013-11-06T16:38:56Z</time>
      </trkpt>
      <trkpt lat="43.38599" lon="6.33328">
        <ele>136</ele>
        <time>2013-11-06T16:38:56Z</time>
      </trkpt>
      <trkpt lat="43.3862" lon="6.33006">
        <ele>139</ele>
        <time>2013-11-06T16:38:56Z</time>
      </trkpt>
      <trkpt lat="43.38654" lon="6.32854">
        <ele>140.235077</ele>
        <time>2013-11-06T16:38:56Z</time>
      </trkpt>
      <trkpt lat="43.38769" lon="6.32725">
        <ele>144.306244</ele>
        <time>2013-11-06T16:38:56Z</time>
      </trkpt>
      <trkpt lat="43.38693" lon="6.32745">
        <ele>143.792496</ele>
        <time>2013-11-06T16:38:56Z</time>
      </trkpt>
      <trkpt lat="43.38598" lon="6.32786">
        <ele>142.134995</ele>
        <time>2013-11-06T16:38:56Z</time>
      </trkpt>
      <trkpt lat="43.38456" lon="6.32783">
        <ele>141.602493</ele>
        <time>2013-11-06T16:38:56Z</time>
      </trkpt>
      <trkpt lat="43.38335" lon="6.32825">
        <ele>140.18335</ele>
        <time>2013-11-06T16:38:56Z</time>
      </trkpt>
      <trkpt lat="43.38231" lon="6.32825">
        <ele>139.641693</ele>
        <time>2013-11-06T16:38:56Z</time>
      </trkpt>
      <trkpt lat="43.3809" lon="6.32891">
        <ele>137.851257</ele>
        <time>2013-11-06T16:38:56Z</time>
      </trkpt>
      <trkpt lat="43.3786" lon="6.33048">
        <ele>135.434998</ele>
        <time>2013-11-06T16:38:56Z</time>
      </trkpt>
      <trkpt lat="43.37744" lon="6.33248">
        <ele>140.950821</ele>
        <time>2013-11-06T16:38:56Z</time>
      </trkpt>
      <trkpt lat="43.37726" lon="6.33269">
        <ele>141.42218</ele>
        <time>2013-11-06T16:38:56Z</time>
      </trkpt>
      <trkpt lat="43.37694" lon="6.33269">
        <ele>142.631317</ele>
        <time>2013-11-06T16:38:56Z</time>
      </trkpt>
      <trkpt lat="43.37666" lon="6.33308">
        <ele>145.360001</ele>
        <time>2013-11-06T16:38:56Z</time>
      </trkpt>
      <trkpt lat="43.37587" lon="6.33318">
        <ele>150.771988</ele>
        <time>2013-11-06T16:38:56Z</time>
      </trkpt>
      <trkpt lat="43.37539" lon="6.33333">
        <ele>152.022858</ele>
        <time>2013-11-06T16:38:56Z</time>
      </trkpt>
      <trkpt lat="43.37494" lon="6.33332">
        <ele>152.039978</ele>
        <time>2013-11-06T16:38:56Z</time>
      </trkpt>
      <trkpt lat="43.37401" lon="6.3333">
        <ele>151.249725</ele>
        <time>2013-11-06T16:38:56Z</time>
      </trkpt>
      <trkpt lat="43.37249" lon="6.3338">
        <ele>150.397491</ele>
        <time>2013-11-06T16:38:56Z</time>
      </trkpt>
      <trkpt lat="43.37209" lon="6.33351">
        <ele>154.068756</ele>
        <time>2013-11-06T16:38:56Z</time>
      </trkpt>
      <trkpt lat="43.37144" lon="6.33326">
        <ele>158.449997</ele>
        <time>2013-11-06T16:38:56Z</time>
      </trkpt>
      <trkpt lat="43.37101" lon="6.33348">
        <ele>158.852493</ele>
        <time>2013-11-06T16:38:56Z</time>
      </trkpt>
      <trkpt lat="43.37045" lon="6.33346">
        <ele>156.159683</ele>
        <time>2013-11-06T16:38:56Z</time>
      </trkpt>
      <trkpt lat="43.36976" lon="6.33393">
        <ele>151.722687</ele>
        <time>2013-11-06T16:38:56Z</time>
      </trkpt>
      <trkpt lat="43.36936" lon="6.33474">
        <ele>149.479996</ele>
        <time>2013-11-06T16:38:56Z</time>
      </trkpt>
      <trkpt lat="43.36859" lon="6.33511">
        <ele>149.897507</ele>
        <time>2013-11-06T16:38:56Z</time>
      </trkpt>
      <trkpt lat="43.36755" lon="6.33542">
        <ele>149.91713</ele>
        <time>2013-11-06T16:38:56Z</time>
      </trkpt>
      <trkpt lat="43.36607" lon="6.33564">
        <ele>147.729996</ele>
        <time>2013-11-06T16:38:56Z</time>
      </trkpt>
      <trkpt lat="43.36555" lon="6.33587">
        <ele>147.172897</ele>
        <time>2013-11-06T16:38:56Z</time>
      </trkpt>
      <trkpt lat="43.36483" lon="6.33596">
        <ele>149.58606</ele>
        <time>2013-11-06T16:38:56Z</time>
      </trkpt>
      <trkpt lat="43.36432" lon="6.33628">
        <ele>150.437439</ele>
        <time>2013-11-06T16:38:56Z</time>
      </trkpt>
      <trkpt lat="43.36401" lon="6.33615">
        <ele>151.520538</ele>
        <time>2013-11-06T16:38:56Z</time>
      </trkpt>
      <trkpt lat="43.36259" lon="6.33582">
        <ele>149.684021</ele>
        <time>2013-11-06T16:38:56Z</time>
      </trkpt>
      <trkpt lat="43.36118" lon="6.33534">
        <ele>139.259995</ele>
        <time>2013-11-06T16:38:56Z</time>
      </trkpt>
      <trkpt lat="43.35999" lon="6.33512">
        <ele>135.458099</ele>
        <time>2013-11-06T16:38:56Z</time>
      </trkpt>
      <trkpt lat="43.35896" lon="6.33541">
        <ele>128.737503</ele>
        <time>2013-11-06T16:38:56Z</time>
      </trkpt>
      <trkpt lat="43.35785" lon="6.33369">
        <ele>126.911247</ele>
        <time>2013-11-06T16:38:56Z</time>
      </trkpt>
      <trkpt lat="43.35737" lon="6.33375">
        <ele>123.9925</ele>
        <time>2013-11-06T16:38:56Z</time>
      </trkpt>
      <trkpt lat="43.35723" lon="6.33416">
        <ele>121.594269</ele>
        <time>2013-11-06T16:38:56Z</time>
      </trkpt>
      <trkpt lat="43.35584" lon="6.33569">
        <ele>125.197502</ele>
        <time>2013-11-06T16:38:56Z</time>
      </trkpt>
      <trkpt lat="43.35433" lon="6.33687">
        <ele>131.927505</ele>
        <time>2013-11-06T16:38:56Z</time>
      </trkpt>
      <trkpt lat="43.35443" lon="6.33717">
        <ele>132.145004</ele>
        <time>2013-11-06T16:38:56Z</time>
      </trkpt>
      <trkpt lat="43.35203" lon="6.33899">
        <ele>134.805008</ele>
        <time>2013-11-06T16:38:56Z</time>
      </trkpt>
      <trkpt lat="43.3503" lon="6.34024">
        <ele>130.492493</ele>
        <time>2013-11-06T16:38:56Z</time>
      </trkpt>
      <trkpt lat="43.34848" lon="6.34199">
        <ele>119.075684</ele>
        <time>2013-11-06T16:38:56Z</time>
      </trkpt>
      <trkpt lat="43.34749" lon="6.34253">
        <ele>115.966248</ele>
        <time>2013-11-06T16:38:56Z</time>
      </trkpt>
      <trkpt lat="43.34615" lon="6.34309">
        <ele>115.385002</ele>
        <time>2013-11-06T16:38:56Z</time>
      </trkpt>
      <trkpt lat="43.34458" lon="6.34451">
        <ele>114.216255</ele>
        <time>2013-11-06T16:38:56Z</time>
      </trkpt>
      <trkpt lat="43.34434" lon="6.34436">
        <ele>114.980003</ele>
        <time>2013-11-06T16:38:56Z</time>
      </trkpt>
      <trkpt lat="43.34362" lon="6.3449">
        <ele>110.396141</ele>
        <time>2013-11-06T16:38:56Z</time>
      </trkpt>
      <trkpt lat="43.34337" lon="6.34528">
        <ele>108.548752</ele>
        <time>2013-11-06T16:38:56Z</time>
      </trkpt>
      <trkpt lat="43.34226" lon="6.34541">
        <ele>106.745003</ele>
        <time>2013-11-06T16:38:56Z</time>
      </trkpt>
      <trkpt lat="43.34133" lon="6.34532">
        <ele>105.696251</ele>
        <time>2013-11-06T16:38:56Z</time>
      </trkpt>
      <trkpt lat="43.33978" lon="6.34591">
        <ele>102.34375</ele>
        <time>2013-11-06T16:38:56Z</time>
      </trkpt>
      <trkpt lat="43.3383" lon="6.34702">
        <ele>99.231522</ele>
        <time>2013-11-06T16:38:56Z</time>
      </trkpt>
      <trkpt lat="43.33749" lon="6.34702">
        <ele>99</ele>
        <time>2013-11-06T16:38:56Z</time>
      </trkpt>
      <trkpt lat="43.3359" lon="6.34789">
        <ele>100.97023</ele>
        <time>2013-11-06T16:38:56Z</time>
      </trkpt>
      <trkpt lat="43.33603" lon="6.34839">
        <ele>101.872406</ele>
        <time>2013-11-06T16:38:56Z</time>
      </trkpt>
      <trkpt lat="43.3352" lon="6.34889">
        <ele>107.908752</ele>
        <time>2013-11-06T16:38:56Z</time>
      </trkpt>
      <trkpt lat="43.334" lon="6.34891">
        <ele>111.908592</ele>
        <time>2013-11-06T16:38:56Z</time>
      </trkpt>
      <trkpt lat="43.33272" lon="6.34889">
        <ele>113.014664</ele>
        <time>2013-11-06T16:38:56Z</time>
      </trkpt>
      <trkpt lat="43.331" lon="6.34909">
        <ele>115.916794</ele>
        <time>2013-11-06T16:38:56Z</time>
      </trkpt>
      <trkpt lat="43.3283" lon="6.34922">
        <ele>122</ele>
        <time>2013-11-06T16:38:56Z</time>
      </trkpt>
      <trkpt lat="43.32869" lon="6.34833">
        <ele>118.61396</ele>
        <time>2013-11-06T16:38:56Z</time>
      </trkpt>
      <trkpt lat="43.32736" lon="6.34795">
        <ele>119.081818</ele>
        <time>2013-11-06T16:38:56Z</time>
      </trkpt>
      <trkpt lat="43.32688" lon="6.34774">
        <ele>118.995972</ele>
        <time>2013-11-06T16:38:56Z</time>
      </trkpt>
      <trkpt lat="43.32704" lon="6.34612">
        <ele>120.602501</ele>
        <time>2013-11-06T16:38:56Z</time>
      </trkpt>
      <trkpt lat="43.32616" lon="6.34561">
        <ele>121.423279</ele>
        <time>2013-11-06T16:38:56Z</time>
      </trkpt>
      <trkpt lat="43.3259" lon="6.34484">
        <ele>123.900978</ele>
        <time>2013-11-06T16:38:56Z</time>
      </trkpt>
      <trkpt lat="43.32407" lon="6.34335">
        <ele>130.994736</ele>
        <time>2013-11-06T16:38:56Z</time>
      </trkpt>
      <trkpt lat="43.32318" lon="6.34325">
        <ele>132.040222</ele>
        <time>2013-11-06T16:38:56Z</time>
      </trkpt>
      <trkpt lat="43.32255" lon="6.34228">
        <ele>133.052628</ele>
        <time>2013-11-06T16:38:56Z</time>
      </trkpt>
      <trkpt lat="43.32224" lon="6.34134">
        <ele>135.882492</ele>
        <time>2013-11-06T16:38:56Z</time>
      </trkpt>
      <trkpt lat="43.32108" lon="6.34037">
        <ele>138.753723</ele>
        <time>2013-11-06T16:38:56Z</time>
      </trkpt>
      <trkpt lat="43.32058" lon="6.3395">
        <ele>140.811188</ele>
        <time>2013-11-06T16:38:56Z</time>
      </trkpt>
      <trkpt lat="43.31959" lon="6.3389">
        <ele>142.830399</ele>
        <time>2013-11-06T16:38:56Z</time>
      </trkpt>
      <trkpt lat="43.31901" lon="6.33811">
        <ele>148.364243</ele>
        <time>2013-11-06T16:38:56Z</time>
      </trkpt>
      <trkpt lat="43.31862" lon="6.337">
        <ele>150.323914</ele>
        <time>2013-11-06T16:38:56Z</time>
      </trkpt>
      <trkpt lat="43.31889" lon="6.33902">
        <ele>140.609695</ele>
        <time>2013-11-06T16:38:56Z</time>
      </trkpt>
      <trkpt lat="43.31933" lon="6.34037">
        <ele>137.893997</ele>
        <time>2013-11-06T16:38:56Z</time>
      </trkpt>
      <trkpt lat="43.31767" lon="6.34119">
        <ele>149.96109</ele>
        <time>2013-11-06T16:38:56Z</time>
      </trkpt>
      <trkpt lat="43.31763" lon="6.34161">
        <ele>150.076004</ele>
        <time>2013-11-06T16:38:56Z</time>
      </trkpt>
      <trkpt lat="43.3161" lon="6.34247">
        <ele>161.8228</ele>
        <time>2013-11-06T16:38:56Z</time>
      </trkpt>
      <trkpt lat="43.31549" lon="6.34257">
        <ele>172.104004</ele>
        <time>2013-11-06T16:38:56Z</time>
      </trkpt>
      <trkpt lat="43.31518" lon="6.34199">
        <ele>176.176086</ele>
        <time>2013-11-06T16:38:56Z</time>
      </trkpt>
      <trkpt lat="43.31479" lon="6.34179">
        <ele>178.756256</ele>
        <time>2013-11-06T16:38:56Z</time>
      </trkpt>
      <trkpt lat="43.31437" lon="6.34204">
        <ele>187.106796</ele>
        <time>2013-11-06T16:38:56Z</time>
      </trkpt>
      <trkpt lat="43.31394" lon="6.34197">
        <ele>196.676254</ele>
        <time>2013-11-06T16:38:56Z</time>
      </trkpt>
      <trkpt lat="43.31371" lon="6.3413">
        <ele>197.630493</ele>
        <time>2013-11-06T16:38:56Z</time>
      </trkpt>
      <trkpt lat="43.31354" lon="6.3422">
        <ele>213.946136</ele>
        <time>2013-11-06T16:38:56Z</time>
      </trkpt>
      <trkpt lat="43.31377" lon="6.34248">
        <ele>211.924042</ele>
        <time>2013-11-06T16:38:56Z</time>
      </trkpt>
      <trkpt lat="43.31369" lon="6.34299">
        <ele>222.926834</ele>
        <time>2013-11-06T16:38:56Z</time>
      </trkpt>
      <trkpt lat="43.31377" lon="6.34306">
        <ele>222.510498</ele>
        <time>2013-11-06T16:38:56Z</time>
      </trkpt>
      <trkpt lat="43.31395" lon="6.34325">
        <ele>223.434753</ele>
        <time>2013-11-06T16:38:56Z</time>
      </trkpt>
      <trkpt lat="43.31415" lon="6.34342">
        <ele>220.765808</ele>
        <time>2013-11-06T16:38:56Z</time>
      </trkpt>
      <trkpt lat="43.3141" lon="6.34383">
        <ele>227.255417</ele>
        <time>2013-11-06T16:38:56Z</time>
      </trkpt>
      <trkpt lat="43.31431" lon="6.344">
        <ele>224.913803</ele>
        <time>2013-11-06T16:38:56Z</time>
      </trkpt>
      <trkpt lat="43.31445" lon="6.34425">
        <ele>225.503754</ele>
        <time>2013-11-06T16:38:56Z</time>
      </trkpt>
      <trkpt lat="43.31444" lon="6.34467">
        <ele>231.509399</ele>
        <time>2013-11-06T16:38:56Z</time>
      </trkpt>
      <trkpt lat="43.3144" lon="6.34517">
        <ele>237.056564</ele>
        <time>2013-11-06T16:38:56Z</time>
      </trkpt>
      <trkpt lat="43.31443" lon="6.34556">
        <ele>238.462387</ele>
        <time>2013-11-06T16:38:56Z</time>
      </trkpt>
      <trkpt lat="43.31452" lon="6.34587">
        <ele>237.135406</ele>
        <time>2013-11-06T16:38:56Z</time>
      </trkpt>
      <trkpt lat="43.31436" lon="6.34608">
        <ele>241.911438</ele>
        <time>2013-11-06T16:38:56Z</time>
      </trkpt>
      <trkpt lat="43.31426" lon="6.34643">
        <ele>244.869629</ele>
        <time>2013-11-06T16:38:56Z</time>
      </trkpt>
      <trkpt lat="43.31438" lon="6.34671">
        <ele>242.180679</ele>
        <time>2013-11-06T16:38:56Z</time>
      </trkpt>
      <trkpt lat="43.31434" lon="6.34713">
        <ele>242.027863</ele>
        <time>2013-11-06T16:38:56Z</time>
      </trkpt>
      <trkpt lat="43.31412" lon="6.34725">
        <ele>245.821014</ele>
        <time>2013-11-06T16:38:56Z</time>
      </trkpt>
      <trkpt lat="43.31358" lon="6.34748">
        <ele>257.178345</ele>
        <time>1999-11-30T00:00:00Z</time>
      </trkpt>
      <trkpt lat="43.31349" lon="6.34798">
        <ele>263.452881</ele>
        <time>1999-11-30T00:00:00Z</time>
      </trkpt>
      <trkpt lat="43.31379" lon="6.3485">
        <ele>258.383911</ele>
        <time>1999-11-30T00:00:00Z</time>
      </trkpt>
      <trkpt lat="43.31364" lon="6.3489">
        <ele>265.016968</ele>
        <time>2013-11-06T16:38:56Z</time>
      </trkpt>
      <trkpt lat="43.31344" lon="6.34907">
        <ele>272.051392</ele>
        <time>2013-11-06T16:38:56Z</time>
      </trkpt>
      <trkpt lat="43.31331" lon="6.34933">
        <ele>276.520813</ele>
        <time>2013-11-06T16:38:56Z</time>
      </trkpt>
      <trkpt lat="43.31318" lon="6.34962">
        <ele>279.416626</ele>
        <time>2013-11-06T16:38:56Z</time>
      </trkpt>
      <trkpt lat="43.31312" lon="6.34999">
        <ele>279.053802</ele>
        <time>2013-11-06T16:38:56Z</time>
      </trkpt>
      <trkpt lat="43.31323" lon="6.35028">
        <ele>276.687744</ele>
        <time>2013-11-06T16:38:56Z</time>
      </trkpt>
      <trkpt lat="43.31323" lon="6.3507">
        <ele>281.058228</ele>
        <time>2013-11-06T16:38:56Z</time>
      </trkpt>
      <trkpt lat="43.3131" lon="6.35098">
        <ele>285.106995</ele>
        <time>2013-11-06T16:38:56Z</time>
      </trkpt>
      <trkpt lat="43.31294" lon="6.35119">
        <ele>292.394287</ele>
        <time>2013-11-06T16:38:56Z</time>
      </trkpt>
      <trkpt lat="43.31291" lon="6.35161">
        <ele>291.507507</ele>
        <time>2013-11-06T16:38:56Z</time>
      </trkpt>
      <trkpt lat="43.31292" lon="6.35202">
        <ele>291.97113</ele>
        <time>2013-11-06T16:38:56Z</time>
      </trkpt>
      <trkpt lat="43.31295" lon="6.35245">
        <ele>294.399872</ele>
        <time>2013-11-06T16:38:56Z</time>
      </trkpt>
      <trkpt lat="43.31295" lon="6.35287">
        <ele>297.79245</ele>
        <time>2013-11-06T16:38:56Z</time>
      </trkpt>
      <trkpt lat="43.31294" lon="6.3533">
        <ele>298.554108</ele>
        <time>2013-11-06T16:38:56Z</time>
      </trkpt>
      <trkpt lat="43.31284" lon="6.35362">
        <ele>300.571472</ele>
        <time>2013-11-06T16:38:56Z</time>
      </trkpt>
      <trkpt lat="43.31268" lon="6.35386">
        <ele>298.018616</ele>
        <time>2013-11-06T16:38:56Z</time>
      </trkpt>
      <trkpt lat="43.31243" lon="6.35376">
        <ele>300.453247</ele>
        <time>2013-11-06T16:38:56Z</time>
      </trkpt>
      <trkpt lat="43.31215" lon="6.35367">
        <ele>302.486237</ele>
        <time>2013-11-06T16:38:56Z</time>
      </trkpt>
      <trkpt lat="43.31192" lon="6.35352">
        <ele>305.089294</ele>
        <time>2013-11-06T16:38:56Z</time>
      </trkpt>
      <trkpt lat="43.31166" lon="6.35343">
        <ele>306.789429</ele>
        <time>2013-11-06T16:38:56Z</time>
      </trkpt>
      <trkpt lat="43.31146" lon="6.35327">
        <ele>309.915741</ele>
        <time>2013-11-06T16:38:56Z</time>
      </trkpt>
      <trkpt lat="43.31137" lon="6.3528">
        <ele>314.546082</ele>
        <time>2013-11-06T16:38:56Z</time>
      </trkpt>
      <trkpt lat="43.31147" lon="6.3514">
        <ele>320.96051</ele>
        <time>2013-11-06T16:38:56Z</time>
      </trkpt>
      <trkpt lat="43.31116" lon="6.34901">
        <ele>336.210815</ele>
        <time>2013-11-06T16:38:56Z</time>
      </trkpt>
      <trkpt lat="43.31088" lon="6.34808">
        <ele>338.175476</ele>
        <time>2013-11-06T16:38:56Z</time>
      </trkpt>
      <trkpt lat="43.31" lon="6.34758">
        <ele>335.963837</ele>
        <time>2013-11-06T16:38:56Z</time>
      </trkpt>
      <trkpt lat="43.31018" lon="6.3463">
        <ele>337.021088</ele>
        <time>2013-11-06T16:38:56Z</time>
      </trkpt>
      <trkpt lat="43.30998" lon="6.3453">
        <ele>329.519318</ele>
        <time>2013-11-06T16:38:56Z</time>
      </trkpt>
      <trkpt lat="43.30927" lon="6.34409">
        <ele>324.382202</ele>
        <time>2013-11-06T16:38:56Z</time>
      </trkpt>
      <trkpt lat="43.30877" lon="6.34324">
        <ele>310.154999</ele>
        <time>2013-11-06T16:38:56Z</time>
      </trkpt>
      <trkpt lat="43.30904" lon="6.34115">
        <ele>304.052246</ele>
        <time>2013-11-06T16:38:56Z</time>
      </trkpt>
      <trkpt lat="43.30905" lon="6.33986">
        <ele>294.343994</ele>
        <time>2013-11-06T16:38:56Z</time>
      </trkpt>
      <trkpt lat="43.30821" lon="6.33722">
        <ele>279.209106</ele>
        <time>2013-11-06T16:38:56Z</time>
      </trkpt>
      <trkpt lat="43.30755" lon="6.33632">
        <ele>283.742493</ele>
        <time>2013-11-06T16:38:56Z</time>
      </trkpt>
      <trkpt lat="43.30684" lon="6.33515">
        <ele>294.8815</ele>
        <time>2013-11-06T16:38:56Z</time>
      </trkpt>
      <trkpt lat="43.30614" lon="6.33385">
        <ele>307.923584</ele>
        <time>2013-11-06T16:38:56Z</time>
      </trkpt>
      <trkpt lat="43.30441" lon="6.33223">
        <ele>334.42691</ele>
        <time>2013-11-06T16:38:56Z</time>
      </trkpt>
      <trkpt lat="43.30359" lon="6.33239">
        <ele>335.138763</ele>
        <time>2013-11-06T16:38:56Z</time>
      </trkpt>
      <trkpt lat="43.30303" lon="6.33222">
        <ele>345.746826</ele>
        <time>2013-11-06T16:38:56Z</time>
      </trkpt>
      <trkpt lat="43.30237" lon="6.33226">
        <ele>344.177185</ele>
        <time>2013-11-06T16:38:56Z</time>
      </trkpt>
      <trkpt lat="43.30169" lon="6.33178">
        <ele>351.30661</ele>
        <time>2013-11-06T16:38:56Z</time>
      </trkpt>
      <trkpt lat="43.30066" lon="6.33118">
        <ele>369.160614</ele>
        <time>2013-11-06T16:38:56Z</time>
      </trkpt>
      <trkpt lat="43.30024" lon="6.33129">
        <ele>370.818909</ele>
        <time>2013-11-06T16:38:56Z</time>
      </trkpt>
      <trkpt lat="43.29943" lon="6.33125">
        <ele>373.606659</ele>
        <time>2013-11-06T16:38:56Z</time>
      </trkpt>
      <trkpt lat="43.29913" lon="6.33099">
        <ele>378.586304</ele>
        <time>2013-11-06T16:38:56Z</time>
      </trkpt>
      <trkpt lat="43.29848" lon="6.33099">
        <ele>381.134186</ele>
        <time>2013-11-06T16:38:56Z</time>
      </trkpt>
      <trkpt lat="43.29801" lon="6.33069">
        <ele>382.560699</ele>
        <time>2013-11-06T16:38:56Z</time>
      </trkpt>
      <trkpt lat="43.29775" lon="6.33018">
        <ele>391.308838</ele>
        <time>2013-11-06T16:38:56Z</time>
      </trkpt>
      <trkpt lat="43.29735" lon="6.33003">
        <ele>391.779999</ele>
        <time>2013-11-06T16:38:56Z</time>
      </trkpt>
      <trkpt lat="43.29673" lon="6.32959">
        <ele>396.406952</ele>
        <time>2013-11-06T16:38:56Z</time>
      </trkpt>
      <trkpt lat="43.29611" lon="6.32913">
        <ele>402.692902</ele>
        <time>2013-11-06T16:38:56Z</time>
      </trkpt>
      <trkpt lat="43.29482" lon="6.32897">
        <ele>421.187836</ele>
        <time>2013-11-06T16:38:56Z</time>
      </trkpt>
      <trkpt lat="43.29409" lon="6.32928">
        <ele>439.801147</ele>
        <time>2013-11-06T16:38:56Z</time>
      </trkpt>
      <trkpt lat="43.29363" lon="6.33097">
        <ele>437.932587</ele>
        <time>2013-11-06T16:38:56Z</time>
      </trkpt>
      <trkpt lat="43.29329" lon="6.33102">
        <ele>440.050629</ele>
        <time>2013-11-06T16:38:56Z</time>
      </trkpt>
      <trkpt lat="43.29281" lon="6.3305">
        <ele>450.124695</ele>
        <time>2013-11-06T16:38:56Z</time>
      </trkpt>
      <trkpt lat="43.29206" lon="6.33023">
        <ele>464.23111</ele>
        <time>2013-11-06T16:38:56Z</time>
      </trkpt>
      <trkpt lat="43.29146" lon="6.3305">
        <ele>474.240295</ele>
        <time>2013-11-06T16:38:56Z</time>
      </trkpt>
      <trkpt lat="43.29135" lon="6.33105">
        <ele>468.656677</ele>
        <time>2013-11-06T16:38:56Z</time>
      </trkpt>
      <trkpt lat="43.2911" lon="6.33151">
        <ele>470.566528</ele>
        <time>2013-11-06T16:38:56Z</time>
      </trkpt>
      <trkpt lat="43.29081" lon="6.33211">
        <ele>475.661377</ele>
        <time>2013-11-06T16:38:56Z</time>
      </trkpt>
      <trkpt lat="43.29077" lon="6.33312">
        <ele>469.224365</ele>
        <time>2013-11-06T16:38:56Z</time>
      </trkpt>
      <trkpt lat="43.28977" lon="6.33345">
        <ele>473.437744</ele>
        <time>2013-11-06T16:38:56Z</time>
      </trkpt>
      <trkpt lat="43.28944" lon="6.33138">
        <ele>491.344147</ele>
        <time>2013-11-06T16:38:56Z</time>
      </trkpt>
      <trkpt lat="43.28912" lon="6.33081">
        <ele>486.053284</ele>
        <time>2013-11-06T16:38:56Z</time>
      </trkpt>
      <trkpt lat="43.28895" lon="6.32981">
        <ele>493.225525</ele>
        <time>2013-11-06T16:38:56Z</time>
      </trkpt>
      <trkpt lat="43.28835" lon="6.32901">
        <ele>491.553986</ele>
        <time>2013-11-06T16:38:56Z</time>
      </trkpt>
      <trkpt lat="43.28734" lon="6.32823">
        <ele>495.557281</ele>
        <time>2013-11-06T16:38:56Z</time>
      </trkpt>
      <trkpt lat="43.28646" lon="6.32774">
        <ele>510.199615</ele>
        <time>2013-11-06T16:38:56Z</time>
      </trkpt>
      <trkpt lat="43.2862" lon="6.32781">
        <ele>515.972412</ele>
        <time>2013-11-06T16:38:56Z</time>
      </trkpt>
      <trkpt lat="43.28572" lon="6.32857">
        <ele>530.339355</ele>
        <time>2013-11-06T16:38:56Z</time>
      </trkpt>
      <trkpt lat="43.28596" lon="6.33085">
        <ele>532.271606</ele>
        <time>2013-11-06T16:38:56Z</time>
      </trkpt>
      <trkpt lat="43.28568" lon="6.33122">
        <ele>533.140564</ele>
        <time>2013-11-06T16:38:56Z</time>
      </trkpt>
      <trkpt lat="43.28412" lon="6.33131">
        <ele>544.251587</ele>
        <time>2013-11-06T16:38:56Z</time>
      </trkpt>
      <trkpt lat="43.28354" lon="6.33166">
        <ele>557.170288</ele>
        <time>2013-11-06T16:38:56Z</time>
      </trkpt>
      <trkpt lat="43.28348" lon="6.33276">
        <ele>548.345215</ele>
        <time>2013-11-06T16:38:56Z</time>
      </trkpt>
      <trkpt lat="43.28251" lon="6.33344">
        <ele>560.528137</ele>
        <time>2013-11-06T16:38:56Z</time>
      </trkpt>
      <trkpt lat="43.28217" lon="6.3343">
        <ele>569.9729</ele>
        <time>2013-11-06T16:38:56Z</time>
      </trkpt>
      <trkpt lat="43.28234" lon="6.3354">
        <ele>566.027039</ele>
        <time>2013-11-06T16:38:56Z</time>
      </trkpt>
      <trkpt lat="43.28214" lon="6.33601">
        <ele>577.809937</ele>
        <time>2013-11-06T16:38:56Z</time>
      </trkpt>
      <trkpt lat="43.28326" lon="6.33709">
        <ele>562.139954</ele>
        <time>2013-11-06T16:38:56Z</time>
      </trkpt>
      <trkpt lat="43.28296" lon="6.33862">
        <ele>571.197754</ele>
        <time>2013-11-06T16:38:56Z</time>
      </trkpt>
      <trkpt lat="43.28186" lon="6.33854">
        <ele>584.279907</ele>
        <time>2013-11-06T16:38:56Z</time>
      </trkpt>
      <trkpt lat="43.28151" lon="6.33986">
        <ele>593.925842</ele>
        <time>2013-11-06T16:38:56Z</time>
      </trkpt>
      <trkpt lat="43.28135" lon="6.34072">
        <ele>596.032532</ele>
        <time>2013-11-06T16:38:56Z</time>
      </trkpt>
      <trkpt lat="43.28153" lon="6.34182">
        <ele>594.159973</ele>
        <time>2013-11-06T16:38:56Z</time>
      </trkpt>
      <trkpt lat="43.28144" lon="6.3424">
        <ele>602.558228</ele>
        <time>2013-11-06T16:38:56Z</time>
      </trkpt>
      <trkpt lat="43.28227" lon="6.34397">
        <ele>601.286743</ele>
        <time>2013-11-06T16:38:56Z</time>
      </trkpt>
      <trkpt lat="43.28224" lon="6.34471">
        <ele>591.391541</ele>
        <time>2013-11-06T16:38:56Z</time>
      </trkpt>
      <trkpt lat="43.28158" lon="6.34538">
        <ele>608.229553</ele>
        <time>2013-11-06T16:38:56Z</time>
      </trkpt>
      <trkpt lat="43.28175" lon="6.34645">
        <ele>599.831726</ele>
        <time>2013-11-06T16:38:56Z</time>
      </trkpt>
      <trkpt lat="43.28098" lon="6.34725">
        <ele>606.2052</ele>
        <time>2013-11-06T16:38:56Z</time>
      </trkpt>
      <trkpt lat="43.28042" lon="6.34822">
        <ele>609.571838</ele>
        <time>2013-11-06T16:38:56Z</time>
      </trkpt>
      <trkpt lat="43.27984" lon="6.34879">
        <ele>607.882141</ele>
        <time>2013-11-06T16:38:56Z</time>
      </trkpt>
      <trkpt lat="43.27986" lon="6.35028">
        <ele>618.602112</ele>
        <time>2013-11-06T16:38:56Z</time>
      </trkpt>
      <trkpt lat="43.27925" lon="6.35106">
        <ele>621.646545</ele>
        <time>2013-11-06T16:38:56Z</time>
      </trkpt>
      <trkpt lat="43.27879" lon="6.35212">
        <ele>621.263855</ele>
        <time>2013-11-06T16:38:56Z</time>
      </trkpt>
      <trkpt lat="43.2789" lon="6.35279">
        <ele>637.421814</ele>
        <time>2013-11-06T16:38:56Z</time>
      </trkpt>
      <trkpt lat="43.2785" lon="6.35462">
        <ele>635.514893</ele>
        <time>2013-11-06T16:38:56Z</time>
      </trkpt>
      <trkpt lat="43.27815" lon="6.35561">
        <ele>638.452271</ele>
        <time>2013-11-06T16:38:56Z</time>
      </trkpt>
      <trkpt lat="43.27923" lon="6.35589">
        <ele>633.912476</ele>
        <time>2013-11-06T16:38:56Z</time>
      </trkpt>
      <trkpt lat="43.27973" lon="6.35649">
        <ele>624.294983</ele>
        <time>2013-11-06T16:38:56Z</time>
      </trkpt>
      <trkpt lat="43.28033" lon="6.35653">
        <ele>631.343994</ele>
        <time>2013-11-06T16:38:56Z</time>
      </trkpt>
      <trkpt lat="43.28051" lon="6.35782">
        <ele>615.981384</ele>
        <time>2013-11-06T16:38:56Z</time>
      </trkpt>
      <trkpt lat="43.2815" lon="6.35839">
        <ele>612.39801</ele>
        <time>2013-11-06T16:38:56Z</time>
      </trkpt>
      <trkpt lat="43.28215" lon="6.36011">
        <ele>604.384338</ele>
        <time>2013-11-06T16:38:56Z</time>
      </trkpt>
      <trkpt lat="43.2838" lon="6.36028">
        <ele>599.911255</ele>
        <time>2013-11-06T16:38:56Z</time>
      </trkpt>
      <trkpt lat="43.28435" lon="6.36098">
        <ele>586.084473</ele>
        <time>2013-11-06T16:38:56Z</time>
      </trkpt>
      <trkpt lat="43.28501" lon="6.361">
        <ele>582.014038</ele>
        <time>2013-11-06T16:38:56Z</time>
      </trkpt>
      <trkpt lat="43.28454" lon="6.36145">
        <ele>580.040527</ele>
        <time>2013-11-06T16:38:56Z</time>
      </trkpt>
      <trkpt lat="43.28329" lon="6.36077">
        <ele>580.195251</ele>
        <time>2013-11-06T16:38:56Z</time>
      </trkpt>
      <trkpt lat="43.28083" lon="6.36274">
        <ele>556.952026</ele>
        <time>2013-11-06T16:38:56Z</time>
      </trkpt>
      <trkpt lat="43.2809" lon="6.36367">
        <ele>557.546936</ele>
        <time>2013-11-06T16:38:56Z</time>
      </trkpt>
      <trkpt lat="43.2807" lon="6.3651">
        <ele>567.787476</ele>
        <time>2013-11-06T16:38:56Z</time>
      </trkpt>
      <trkpt lat="43.27999" lon="6.36591">
        <ele>577.527527</ele>
        <time>2013-11-06T16:38:56Z</time>
      </trkpt>
      <trkpt lat="43.27935" lon="6.36646">
        <ele>575.166626</ele>
        <time>2013-11-06T16:38:56Z</time>
      </trkpt>
      <trkpt lat="43.2784" lon="6.36659">
        <ele>586.069885</ele>
        <time>2013-11-06T16:38:56Z</time>
      </trkpt>
      <trkpt lat="43.278" lon="6.36706">
        <ele>594.888672</ele>
        <time>2013-11-06T16:38:56Z</time>
      </trkpt>
      <trkpt lat="43.27814" lon="6.36842">
        <ele>595.491089</ele>
        <time>2013-11-06T16:38:56Z</time>
      </trkpt>
      <trkpt lat="43.2786" lon="6.36901">
        <ele>590.186768</ele>
        <time>2013-11-06T16:38:56Z</time>
      </trkpt>
      <trkpt lat="43.27836" lon="6.36962">
        <ele>597.668457</ele>
        <time>2013-11-06T16:38:56Z</time>
      </trkpt>
      <trkpt lat="43.27806" lon="6.36993">
        <ele>604.095825</ele>
        <time>2013-11-06T16:38:56Z</time>
      </trkpt>
      <trkpt lat="43.27834" lon="6.37097">
        <ele>603.636963</ele>
        <time>2013-11-06T16:38:56Z</time>
      </trkpt>
      <trkpt lat="43.27843" lon="6.37157">
        <ele>607.048828</ele>
        <time>2013-11-06T16:38:56Z</time>
      </trkpt>
      <trkpt lat="43.27698" lon="6.36985">
        <ele>626.965942</ele>
        <time>2013-11-06T16:38:56Z</time>
      </trkpt>
      <trkpt lat="43.27666" lon="6.36874">
        <ele>630.534607</ele>
        <time>2013-11-06T16:38:56Z</time>
      </trkpt>
      <trkpt lat="43.27576" lon="6.36921">
        <ele>638.956726</ele>
        <time>2013-11-06T16:38:56Z</time>
      </trkpt>
      <trkpt lat="43.27546" lon="6.36894">
        <ele>642.063049</ele>
        <time>2013-11-06T16:38:56Z</time>
      </trkpt>
      <trkpt lat="43.27501" lon="6.36848">
        <ele>641.819092</ele>
        <time>2013-11-06T16:38:56Z</time>
      </trkpt>
      <trkpt lat="43.27457" lon="6.36849">
        <ele>641.727783</ele>
        <time>2013-11-06T16:38:56Z</time>
      </trkpt>
      <trkpt lat="43.27404" lon="6.36781">
        <ele>637.305298</ele>
        <time>2013-11-06T16:38:56Z</time>
      </trkpt>
      <trkpt lat="43.27392" lon="6.36934">
        <ele>625.402527</ele>
        <time>2013-11-06T16:38:56Z</time>
      </trkpt>
      <trkpt lat="43.27354" lon="6.37102">
        <ele>606.242493</ele>
        <time>2013-11-06T16:38:56Z</time>
      </trkpt>
      <trkpt lat="43.27338" lon="6.37208">
        <ele>599.167297</ele>
        <time>2013-11-06T16:38:56Z</time>
      </trkpt>
      <trkpt lat="43.27351" lon="6.37287">
        <ele>594.433472</ele>
        <time>2013-11-06T16:38:56Z</time>
      </trkpt>
      <trkpt lat="43.27248" lon="6.3734">
        <ele>589.257446</ele>
        <time>2013-11-06T16:38:56Z</time>
      </trkpt>
      <trkpt lat="43.27157" lon="6.37347">
        <ele>589.231079</ele>
        <time>2013-11-06T16:38:56Z</time>
      </trkpt>
      <trkpt lat="43.27062" lon="6.37464">
        <ele>595.387695</ele>
        <time>2013-11-06T16:38:56Z</time>
      </trkpt>
      <trkpt lat="43.2706" lon="6.37518">
        <ele>592.089722</ele>
        <time>2013-11-06T16:38:56Z</time>
      </trkpt>
      <trkpt lat="43.27009" lon="6.37534">
        <ele>598.418396</ele>
        <time>2013-11-06T16:38:56Z</time>
      </trkpt>
      <trkpt lat="43.26993" lon="6.37594">
        <ele>598.829224</ele>
        <time>2013-11-06T16:38:56Z</time>
      </trkpt>
      <trkpt lat="43.26931" lon="6.37644">
        <ele>599.871277</ele>
        <time>2013-11-06T16:38:56Z</time>
      </trkpt>
      <trkpt lat="43.26854" lon="6.37603">
        <ele>601.938416</ele>
        <time>2013-11-06T16:38:56Z</time>
      </trkpt>
      <trkpt lat="43.26823" lon="6.37575">
        <ele>603.233276</ele>
        <time>2013-11-06T16:38:56Z</time>
      </trkpt>
      <trkpt lat="43.26671" lon="6.37598">
        <ele>599.894775</ele>
        <time>2013-11-06T16:38:56Z</time>
      </trkpt>
      <trkpt lat="43.26577" lon="6.37585">
        <ele>597.992981</ele>
        <time>2013-11-06T16:38:56Z</time>
      </trkpt>
      <trkpt lat="43.26533" lon="6.37565">
        <ele>597.353149</ele>
        <time>2013-11-06T16:38:56Z</time>
      </trkpt>
      <trkpt lat="43.2649" lon="6.37503">
        <ele>597.180969</ele>
        <time>2013-11-06T16:38:56Z</time>
      </trkpt>
      <trkpt lat="43.26473" lon="6.3744">
        <ele>599.604675</ele>
        <time>2013-11-06T16:38:56Z</time>
      </trkpt>
      <trkpt lat="43.26472" lon="6.37362">
        <ele>601.586243</ele>
        <time>2013-11-06T16:38:56Z</time>
      </trkpt>
      <trkpt lat="43.26426" lon="6.3733">
        <ele>600.61676</ele>
        <time>2013-11-06T16:38:56Z</time>
      </trkpt>
      <trkpt lat="43.26397" lon="6.37279">
        <ele>601.509644</ele>
        <time>2013-11-06T16:38:56Z</time>
      </trkpt>
      <trkpt lat="43.26374" lon="6.37243">
        <ele>601.317383</ele>
        <time>2013-11-06T16:38:56Z</time>
      </trkpt>
      <trkpt lat="43.26359" lon="6.37172">
        <ele>602.123352</ele>
        <time>2013-11-06T16:38:56Z</time>
      </trkpt>
      <trkpt lat="43.26309" lon="6.37153">
        <ele>600.738525</ele>
        <time>2013-11-06T16:38:56Z</time>
      </trkpt>
      <trkpt lat="43.26324" lon="6.37271">
        <ele>600.955017</ele>
        <time>2013-11-06T16:38:56Z</time>
      </trkpt>
      <trkpt lat="43.26304" lon="6.37301">
        <ele>602.33252</ele>
        <time>2013-11-06T16:38:56Z</time>
      </trkpt>
      <trkpt lat="43.26217" lon="6.37264">
        <ele>609.900024</ele>
        <time>2013-11-06T16:38:56Z</time>
      </trkpt>
      <trkpt lat="43.26153" lon="6.37392">
        <ele>614.789795</ele>
        <time>2013-11-06T16:38:56Z</time>
      </trkpt>
      <trkpt lat="43.26098" lon="6.37551">
        <ele>610.195618</ele>
        <time>2013-11-06T16:38:56Z</time>
      </trkpt>
      <trkpt lat="43.26052" lon="6.37616">
        <ele>601.773621</ele>
        <time>2013-11-06T16:38:56Z</time>
      </trkpt>
      <trkpt lat="43.26028" lon="6.37838">
        <ele>599.929199</ele>
        <time>2013-11-06T16:38:56Z</time>
      </trkpt>
      <trkpt lat="43.26015" lon="6.38048">
        <ele>590.472412</ele>
        <time>2013-11-06T16:38:56Z</time>
      </trkpt>
      <trkpt lat="43.26071" lon="6.38068">
        <ele>588.141235</ele>
        <time>2013-11-06T16:38:56Z</time>
      </trkpt>
      <trkpt lat="43.26105" lon="6.3836">
        <ele>574.342651</ele>
        <time>2013-11-06T16:38:56Z</time>
      </trkpt>
      <trkpt lat="43.26147" lon="6.3845">
        <ele>574.254395</ele>
        <time>2013-11-06T16:38:56Z</time>
      </trkpt>
      <trkpt lat="43.2624" lon="6.38557">
        <ele>573.063965</ele>
        <time>2013-11-06T16:38:56Z</time>
      </trkpt>
      <trkpt lat="43.26317" lon="6.38712">
        <ele>567.942505</ele>
        <time>2013-11-06T16:38:56Z</time>
      </trkpt>
      <trkpt lat="43.26327" lon="6.38752">
        <ele>567.803772</ele>
        <time>2013-11-06T16:38:56Z</time>
      </trkpt>
      <trkpt lat="43.26354" lon="6.3887">
        <ele>562.160828</ele>
        <time>2013-11-06T16:38:56Z</time>
      </trkpt>
      <trkpt lat="43.26299" lon="6.39003">
        <ele>558.381104</ele>
        <time>2013-11-06T16:38:56Z</time>
      </trkpt>
      <trkpt lat="43.26303" lon="6.39131">
        <ele>548.149292</ele>
        <time>2013-11-06T16:38:56Z</time>
      </trkpt>
      <trkpt lat="43.26292" lon="6.39259">
        <ele>544.274963</ele>
        <time>2013-11-06T16:38:56Z</time>
      </trkpt>
      <trkpt lat="43.26213" lon="6.39198">
        <ele>542.466736</ele>
        <time>1999-11-30T00:00:00Z</time>
      </trkpt>
      <trkpt lat="43.26117" lon="6.3917">
        <ele>530.134888</ele>
        <time>1999-11-30T00:00:00Z</time>
      </trkpt>
      <trkpt lat="43.26128" lon="6.39307">
        <ele>515.635071</ele>
        <time>1999-11-30T00:00:00Z</time>
      </trkpt>
      <trkpt lat="43.26192" lon="6.39342">
        <ele>523.398071</ele>
        <time>1999-11-30T00:00:00Z</time>
      </trkpt>
      <trkpt lat="43.26132" lon="6.39602">
        <ele>498.632751</ele>
        <time>1999-11-30T00:00:00Z</time>
      </trkpt>
      <trkpt lat="43.26152" lon="6.39655">
        <ele>500.223236</ele>
        <time>1999-11-30T00:00:00Z</time>
      </trkpt>
      <trkpt lat="43.26131" lon="6.39709">
        <ele>491.137054</ele>
        <time>1999-11-30T00:00:00Z</time>
      </trkpt>
      <trkpt lat="43.26084" lon="6.39552">
        <ele>486.316559</ele>
        <time>1999-11-30T00:00:00Z</time>
      </trkpt>
      <trkpt lat="43.26072" lon="6.39628">
        <ele>484.442993</ele>
        <time>1999-11-30T00:00:00Z</time>
      </trkpt>
      <trkpt lat="43.2601" lon="6.39696">
        <ele>472.886688</ele>
        <time>1999-11-30T00:00:00Z</time>
      </trkpt>
      <trkpt lat="43.26" lon="6.39807">
        <ele>470.536469</ele>
        <time>1999-11-30T00:00:00Z</time>
      </trkpt>
      <trkpt lat="43.26008" lon="6.3991">
        <ele>464.581421</ele>
        <time>1999-11-30T00:00:00Z</time>
      </trkpt>
      <trkpt lat="43.25965" lon="6.40065">
        <ele>449.185486</ele>
        <time>1999-11-30T00:00:00Z</time>
      </trkpt>
      <trkpt lat="43.2596" lon="6.40108">
        <ele>447.492737</ele>
        <time>1999-11-30T00:00:00Z</time>
      </trkpt>
      <trkpt lat="43.2593" lon="6.40174">
        <ele>447.00058</ele>
        <time>1999-11-30T00:00:00Z</time>
      </trkpt>
      <trkpt lat="43.25925" lon="6.40383">
        <ele>450.338745</ele>
        <time>1999-11-30T00:00:00Z</time>
      </trkpt>
      <trkpt lat="43.25924" lon="6.40725">
        <ele>435.655182</ele>
        <time>1999-11-30T00:00:00Z</time>
      </trkpt>
      <trkpt lat="43.25959" lon="6.40813">
        <ele>440.837128</ele>
        <time>1999-11-30T00:00:00Z</time>
      </trkpt>
      <trkpt lat="43.25902" lon="6.40907">
        <ele>426.422485</ele>
        <time>1999-11-30T00:00:00Z</time>
      </trkpt>
      <trkpt lat="43.25897" lon="6.41125">
        <ele>421.120636</ele>
        <time>1999-11-30T00:00:00Z</time>
      </trkpt>
      <trkpt lat="43.25967" lon="6.41326">
        <ele>409.998657</ele>
        <time>1999-11-30T00:00:00Z</time>
      </trkpt>
      <trkpt lat="43.26096" lon="6.41481">
        <ele>414.790588</ele>
        <time>1999-11-30T00:00:00Z</time>
      </trkpt>
      <trkpt lat="43.26166" lon="6.41691">
        <ele>421.37558</ele>
        <time>1999-11-30T00:00:00Z</time>
      </trkpt>
      <trkpt lat="43.26274" lon="6.4172">
        <ele>415.646545</ele>
        <time>1999-11-30T00:00:00Z</time>
      </trkpt>
      <trkpt lat="43.2639" lon="6.41797">
        <ele>404.595245</ele>
        <time>1999-11-30T00:00:00Z</time>
      </trkpt>
      <trkpt lat="43.26483" lon="6.41825">
        <ele>396.914246</ele>
        <time>1999-11-30T00:00:00Z</time>
      </trkpt>
      <trkpt lat="43.26542" lon="6.41752">
        <ele>393.120728</ele>
        <time>1999-11-30T00:00:00Z</time>
      </trkpt>
      <trkpt lat="43.26574" lon="6.41643">
        <ele>382.616913</ele>
        <time>1999-11-30T00:00:00Z</time>
      </trkpt>
      <trkpt lat="43.26597" lon="6.41444">
        <ele>385.039246</ele>
        <time>1999-11-30T00:00:00Z</time>
      </trkpt>
      <trkpt lat="43.26632" lon="6.41262">
        <ele>364.452881</ele>
        <time>1999-11-30T00:00:00Z</time>
      </trkpt>
      <trkpt lat="43.26581" lon="6.41302">
        <ele>372.872009</ele>
        <time>1999-11-30T00:00:00Z</time>
      </trkpt>
      <trkpt lat="43.26501" lon="6.41257">
        <ele>371.140015</ele>
        <time>1999-11-30T00:00:00Z</time>
      </trkpt>
      <trkpt lat="43.26487" lon="6.41209">
        <ele>366.075653</ele>
        <time>1999-11-30T00:00:00Z</time>
      </trkpt>
      <trkpt lat="43.26404" lon="6.41178">
        <ele>373.333771</ele>
        <time>1999-11-30T00:00:00Z</time>
      </trkpt>
      <trkpt lat="43.26407" lon="6.41101">
        <ele>363.66861</ele>
        <time>1999-11-30T00:00:00Z</time>
      </trkpt>
      <trkpt lat="43.26333" lon="6.40989">
        <ele>365.299042</ele>
        <time>1999-11-30T00:00:00Z</time>
      </trkpt>
      <trkpt lat="43.26335" lon="6.40938">
        <ele>354.364899</ele>
        <time>1999-11-30T00:00:00Z</time>
      </trkpt>
      <trkpt lat="43.26289" lon="6.40913">
        <ele>362.611786</ele>
        <time>1999-11-30T00:00:00Z</time>
      </trkpt>
      <trkpt lat="43.26319" lon="6.40864">
        <ele>352.900269</ele>
        <time>1999-11-30T00:00:00Z</time>
      </trkpt>
      <trkpt lat="43.26356" lon="6.40717">
        <ele>347.681396</ele>
        <time>1999-11-30T00:00:00Z</time>
      </trkpt>
      <trkpt lat="43.26403" lon="6.40644">
        <ele>340.664886</ele>
        <time>1999-11-30T00:00:00Z</time>
      </trkpt>
      <trkpt lat="43.26361" lon="6.40577">
        <ele>338.403564</ele>
        <time>1999-11-30T00:00:00Z</time>
      </trkpt>
      <trkpt lat="43.26322" lon="6.40531">
        <ele>334.340942</ele>
        <time>1999-11-30T00:00:00Z</time>
      </trkpt>
      <trkpt lat="43.26285" lon="6.40524">
        <ele>339.056274</ele>
        <time>1999-11-30T00:00:00Z</time>
      </trkpt>
      <trkpt lat="43.2621" lon="6.40459">
        <ele>337.914429</ele>
        <time>1999-11-30T00:00:00Z</time>
      </trkpt>
      <trkpt lat="43.26235" lon="6.4038">
        <ele>323.868042</ele>
        <time>1999-11-30T00:00:00Z</time>
      </trkpt>
      <trkpt lat="43.26237" lon="6.40324">
        <ele>327.23703</ele>
        <time>1999-11-30T00:00:00Z</time>
      </trkpt>
      <trkpt lat="43.26328" lon="6.40297">
        <ele>310.720947</ele>
        <time>1999-11-30T00:00:00Z</time>
      </trkpt>
      <trkpt lat="43.26359" lon="6.40218">
        <ele>305.235413</ele>
        <time>1999-11-30T00:00:00Z</time>
      </trkpt>
      <trkpt lat="43.26395" lon="6.40195">
        <ele>298.752502</ele>
        <time>1999-11-30T00:00:00Z</time>
      </trkpt>
      <trkpt lat="43.2644" lon="6.40151">
        <ele>300.812592</ele>
        <time>1999-11-30T00:00:00Z</time>
      </trkpt>
      <trkpt lat="43.26415" lon="6.40239">
        <ele>296.009979</ele>
        <time>1999-11-30T00:00:00Z</time>
      </trkpt>
      <trkpt lat="43.26417" lon="6.40346">
        <ele>292.748901</ele>
        <time>1999-11-30T00:00:00Z</time>
      </trkpt>
      <trkpt lat="43.26485" lon="6.40372">
        <ele>291.630798</ele>
        <time>1999-11-30T00:00:00Z</time>
      </trkpt>
      <trkpt lat="43.26579" lon="6.40353">
        <ele>290.276428</ele>
        <time>1999-11-30T00:00:00Z</time>
      </trkpt>
      <trkpt lat="43.26605" lon="6.40248">
        <ele>303.30838</ele>
        <time>1999-11-30T00:00:00Z</time>
      </trkpt>
      <trkpt lat="43.26694" lon="6.40216">
        <ele>305.003418</ele>
        <time>1999-11-30T00:00:00Z</time>
      </trkpt>
      <trkpt lat="43.26769" lon="6.40285">
        <ele>306.339203</ele>
        <time>1999-11-30T00:00:00Z</time>
      </trkpt>
      <trkpt lat="43.26844" lon="6.40445">
        <ele>310.935272</ele>
        <time>1999-11-30T00:00:00Z</time>
      </trkpt>
      <trkpt lat="43.26904" lon="6.40346">
        <ele>326.976776</ele>
        <time>1999-11-30T00:00:00Z</time>
      </trkpt>
      <trkpt lat="43.27045" lon="6.40425">
        <ele>333.598663</ele>
        <time>1999-11-30T00:00:00Z</time>
      </trkpt>
      <trkpt lat="43.27102" lon="6.40416">
        <ele>344.815704</ele>
        <time>1999-11-30T00:00:00Z</time>
      </trkpt>
      <trkpt lat="43.27141" lon="6.40449">
        <ele>345.321503</ele>
        <time>1999-11-30T00:00:00Z</time>
      </trkpt>
      <trkpt lat="43.27212" lon="6.40462">
        <ele>353.227325</ele>
        <time>1999-11-30T00:00:00Z</time>
      </trkpt>
      <trkpt lat="43.27284" lon="6.40476">
        <ele>364.108124</ele>
        <time>1999-11-30T00:00:00Z</time>
      </trkpt>
      <trkpt lat="43.27324" lon="6.40564">
        <ele>361.774963</ele>
        <time>1999-11-30T00:00:00Z</time>
      </trkpt>
      <trkpt lat="43.27487" lon="6.40721">
        <ele>383.701691</ele>
        <time>1999-11-30T00:00:00Z</time>
      </trkpt>
      <trkpt lat="43.2751" lon="6.4086">
        <ele>397.131439</ele>
        <time>1999-11-30T00:00:00Z</time>
      </trkpt>
      <trkpt lat="43.2747" lon="6.41015">
        <ele>402.789398</ele>
        <time>1999-11-30T00:00:00Z</time>
      </trkpt>
      <trkpt lat="43.27578" lon="6.41211">
        <ele>411.709381</ele>
        <time>1999-11-30T00:00:00Z</time>
      </trkpt>
      <trkpt lat="43.27647" lon="6.41207">
        <ele>406.211273</ele>
        <time>1999-11-30T00:00:00Z</time>
      </trkpt>
      <trkpt lat="43.27626" lon="6.41086">
        <ele>406.108551</ele>
        <time>1999-11-30T00:00:00Z</time>
      </trkpt>
      <trkpt lat="43.27639" lon="6.40993">
        <ele>400.403809</ele>
        <time>1999-11-30T00:00:00Z</time>
      </trkpt>
      <trkpt lat="43.27622" lon="6.40876">
        <ele>395.778107</ele>
        <time>1999-11-30T00:00:00Z</time>
      </trkpt>
      <trkpt lat="43.27638" lon="6.40762">
        <ele>379.176086</ele>
        <time>2013-11-06T16:38:56Z</time>
      </trkpt>
      <trkpt lat="43.27634" lon="6.40702">
        <ele>376.239349</ele>
        <time>2013-11-06T16:38:56Z</time>
      </trkpt>
      <trkpt lat="43.27632" lon="6.40653">
        <ele>372.98526</ele>
        <time>2013-11-06T16:38:56Z</time>
      </trkpt>
      <trkpt lat="43.27654" lon="6.40578">
        <ele>365.483521</ele>
        <time>2013-11-06T16:38:56Z</time>
      </trkpt>
      <trkpt lat="43.27675" lon="6.40508">
        <ele>361.682526</ele>
        <time>2013-11-06T16:38:56Z</time>
      </trkpt>
      <trkpt lat="43.27721" lon="6.40433">
        <ele>347.994415</ele>
        <time>2013-11-06T16:38:56Z</time>
      </trkpt>
      <trkpt lat="43.27692" lon="6.40369">
        <ele>348.833252</ele>
        <time>2013-11-06T16:38:56Z</time>
      </trkpt>
      <trkpt lat="43.27665" lon="6.40295">
        <ele>340.719116</ele>
        <time>2013-11-06T16:38:56Z</time>
      </trkpt>
      <trkpt lat="43.27645" lon="6.40216">
        <ele>335.521759</ele>
        <time>2013-11-06T16:38:56Z</time>
      </trkpt>
      <trkpt lat="43.27643" lon="6.40088">
        <ele>333.170624</ele>
        <time>2013-11-06T16:38:56Z</time>
      </trkpt>
      <trkpt lat="43.2768" lon="6.40066">
        <ele>327.495605</ele>
        <time>2013-11-06T16:38:56Z</time>
      </trkpt>
      <trkpt lat="43.27706" lon="6.40118">
        <ele>331.956848</ele>
        <time>2013-11-06T16:38:56Z</time>
      </trkpt>
      <trkpt lat="43.27762" lon="6.40193">
        <ele>339.222931</ele>
        <time>2013-11-06T16:38:56Z</time>
      </trkpt>
      <trkpt lat="43.27884" lon="6.40146">
        <ele>358.368622</ele>
        <time>2013-11-06T16:38:56Z</time>
      </trkpt>
      <trkpt lat="43.27898" lon="6.40209">
        <ele>354.922455</ele>
        <time>2013-11-06T16:38:56Z</time>
      </trkpt>
      <trkpt lat="43.27907" lon="6.40255">
        <ele>359.217865</ele>
        <time>2013-11-06T16:38:56Z</time>
      </trkpt>
      <trkpt lat="43.27899" lon="6.40295">
        <ele>357.119446</ele>
        <time>2013-11-06T16:38:56Z</time>
      </trkpt>
      <trkpt lat="43.27914" lon="6.4033">
        <ele>356.968201</ele>
        <time>2013-11-06T16:38:56Z</time>
      </trkpt>
      <trkpt lat="43.27954" lon="6.40326">
        <ele>370.587494</ele>
        <time>2013-11-06T16:38:56Z</time>
      </trkpt>
      <trkpt lat="43.27994" lon="6.40415">
        <ele>375.650848</ele>
        <time>2013-11-06T16:38:56Z</time>
      </trkpt>
      <trkpt lat="43.28035" lon="6.40515">
        <ele>377.675598</ele>
        <time>2013-11-06T16:38:56Z</time>
      </trkpt>
      <trkpt lat="43.28066" lon="6.40525">
        <ele>383.255005</ele>
        <time>2013-11-06T16:38:56Z</time>
      </trkpt>
      <trkpt lat="43.28146" lon="6.40534">
        <ele>388.417664</ele>
        <time>2013-11-06T16:38:56Z</time>
      </trkpt>
      <trkpt lat="43.28195" lon="6.40525">
        <ele>391.011536</ele>
        <time>2013-11-06T16:38:56Z</time>
      </trkpt>
      <trkpt lat="43.28225" lon="6.40598">
        <ele>380.80069</ele>
        <time>2013-11-06T16:38:56Z</time>
      </trkpt>
      <trkpt lat="43.28296" lon="6.4064">
        <ele>384.562744</ele>
        <time>2013-11-06T16:38:56Z</time>
      </trkpt>
      <trkpt lat="43.28315" lon="6.40709">
        <ele>384.025146</ele>
        <time>2013-11-06T16:38:56Z</time>
      </trkpt>
      <trkpt lat="43.28333" lon="6.40784">
        <ele>383.465485</ele>
        <time>2013-11-06T16:38:56Z</time>
      </trkpt>
      <trkpt lat="43.28381" lon="6.40856">
        <ele>386.535706</ele>
        <time>2013-11-06T16:38:56Z</time>
      </trkpt>
      <trkpt lat="43.28369" lon="6.40918">
        <ele>383.591949</ele>
        <time>2013-11-06T16:38:56Z</time>
      </trkpt>
      <trkpt lat="43.28337" lon="6.40976">
        <ele>375.899078</ele>
        <time>2013-11-06T16:38:56Z</time>
      </trkpt>
      <trkpt lat="43.28354" lon="6.41041">
        <ele>369.317505</ele>
        <time>2013-11-06T16:38:56Z</time>
      </trkpt>
      <trkpt lat="43.28417" lon="6.41069">
        <ele>367.014221</ele>
        <time>2013-11-06T16:38:56Z</time>
      </trkpt>
      <trkpt lat="43.28508" lon="6.4106">
        <ele>361.237518</ele>
        <time>2013-11-06T16:38:56Z</time>
      </trkpt>
      <trkpt lat="43.28567" lon="6.4102">
        <ele>355.090637</ele>
        <time>2013-11-06T16:38:56Z</time>
      </trkpt>
      <trkpt lat="43.28638" lon="6.40947">
        <ele>353.132935</ele>
        <time>2013-11-06T16:38:56Z</time>
      </trkpt>
      <trkpt lat="43.28656" lon="6.40969">
        <ele>356.321503</ele>
        <time>2013-11-06T16:38:56Z</time>
      </trkpt>
      <trkpt lat="43.28653" lon="6.41029">
        <ele>348.24527</ele>
        <time>2013-11-06T16:38:56Z</time>
      </trkpt>
      <trkpt lat="43.28663" lon="6.41103">
        <ele>343.4646</ele>
        <time>2013-11-06T16:38:56Z</time>
      </trkpt>
      <trkpt lat="43.28704" lon="6.41174">
        <ele>336.7995</ele>
        <time>2013-11-06T16:38:56Z</time>
      </trkpt>
      <trkpt lat="43.2879" lon="6.41218">
        <ele>332.768127</ele>
        <time>2013-11-06T16:38:56Z</time>
      </trkpt>
      <trkpt lat="43.2885" lon="6.41307">
        <ele>332.647217</ele>
        <time>2013-11-06T16:38:56Z</time>
      </trkpt>
      <trkpt lat="43.28882" lon="6.41374">
        <ele>338.938507</ele>
        <time>2013-11-06T16:38:56Z</time>
      </trkpt>
      <trkpt lat="43.289" lon="6.41463">
        <ele>338.358063</ele>
        <time>2013-11-06T16:38:56Z</time>
      </trkpt>
      <trkpt lat="43.28941" lon="6.41462">
        <ele>341.821838</ele>
        <time>2013-11-06T16:38:56Z</time>
      </trkpt>
      <trkpt lat="43.28967" lon="6.41358">
        <ele>344.476563</ele>
        <time>2013-11-06T16:38:56Z</time>
      </trkpt>
      <trkpt lat="43.29009" lon="6.41134">
        <ele>340.498138</ele>
        <time>2013-11-06T16:38:56Z</time>
      </trkpt>
      <trkpt lat="43.29042" lon="6.41028">
        <ele>334.44696</ele>
        <time>2013-11-06T16:38:56Z</time>
      </trkpt>
      <trkpt lat="43.29026" lon="6.40927">
        <ele>341.301392</ele>
        <time>2013-11-06T16:38:56Z</time>
      </trkpt>
      <trkpt lat="43.29062" lon="6.40837">
        <ele>340.130341</ele>
        <time>2013-11-06T16:38:56Z</time>
      </trkpt>
      <trkpt lat="43.29083" lon="6.40931">
        <ele>330.044769</ele>
        <time>2013-11-06T16:38:56Z</time>
      </trkpt>
      <trkpt lat="43.29094" lon="6.40991">
        <ele>327.266479</ele>
        <time>2013-11-06T16:38:56Z</time>
      </trkpt>
      <trkpt lat="43.29152" lon="6.41011">
        <ele>342.083527</ele>
        <time>2013-11-06T16:38:56Z</time>
      </trkpt>
      <trkpt lat="43.29111" lon="6.41108">
        <ele>340.807159</ele>
        <time>2013-11-06T16:38:56Z</time>
      </trkpt>
      <trkpt lat="43.29136" lon="6.41356">
        <ele>341.662445</ele>
        <time>2013-11-06T16:38:56Z</time>
      </trkpt>
      <trkpt lat="43.2918" lon="6.41472">
        <ele>341.356689</ele>
        <time>2013-11-06T16:38:56Z</time>
      </trkpt>
      <trkpt lat="43.29259" lon="6.415">
        <ele>341.28299</ele>
        <time>2013-11-06T16:38:56Z</time>
      </trkpt>
      <trkpt lat="43.29321" lon="6.41498">
        <ele>352.662445</ele>
        <time>2013-11-06T16:38:56Z</time>
      </trkpt>
      <trkpt lat="43.29314" lon="6.41572">
        <ele>346.001953</ele>
        <time>2013-11-06T16:38:56Z</time>
      </trkpt>
      <trkpt lat="43.29352" lon="6.4173">
        <ele>346.994507</ele>
        <time>2013-11-06T16:38:56Z</time>
      </trkpt>
      <trkpt lat="43.29422" lon="6.41765">
        <ele>355.449738</ele>
        <time>2013-11-06T16:38:56Z</time>
      </trkpt>
      <trkpt lat="43.29374" lon="6.41805">
        <ele>357.45874</ele>
        <time>2013-11-06T16:38:56Z</time>
      </trkpt>
      <trkpt lat="43.29293" lon="6.41814">
        <ele>359.527313</ele>
        <time>2013-11-06T16:38:56Z</time>
      </trkpt>
      <trkpt lat="43.29232" lon="6.41746">
        <ele>355.230194</ele>
        <time>2013-11-06T16:38:56Z</time>
      </trkpt>
      <trkpt lat="43.2918" lon="6.41779">
        <ele>344.558929</ele>
        <time>2013-11-06T16:38:56Z</time>
      </trkpt>
      <trkpt lat="43.29186" lon="6.4183">
        <ele>347.53186</ele>
        <time>2013-11-06T16:38:56Z</time>
      </trkpt>
      <trkpt lat="43.29205" lon="6.41855">
        <ele>353.13681</ele>
        <time>2013-11-06T16:38:56Z</time>
      </trkpt>
      <trkpt lat="43.29192" lon="6.41967">
        <ele>354.341187</ele>
        <time>2013-11-06T16:38:56Z</time>
      </trkpt>
      <trkpt lat="43.29146" lon="6.4197">
        <ele>357.596985</ele>
        <time>2013-11-06T16:38:56Z</time>
      </trkpt>
      <trkpt lat="43.29085" lon="6.41922">
        <ele>351.579407</ele>
        <time>2013-11-06T16:38:56Z</time>
      </trkpt>
      <trkpt lat="43.29051" lon="6.41926">
        <ele>349.894958</ele>
        <time>2013-11-06T16:38:56Z</time>
      </trkpt>
      <trkpt lat="43.29031" lon="6.4196">
        <ele>358.52417</ele>
        <time>2013-11-06T16:38:56Z</time>
      </trkpt>
      <trkpt lat="43.28966" lon="6.41967">
        <ele>354.70401</ele>
        <time>2013-11-06T16:38:56Z</time>
      </trkpt>
      <trkpt lat="43.28919" lon="6.41937">
        <ele>347.75589</ele>
        <time>2013-11-06T16:38:56Z</time>
      </trkpt>
      <trkpt lat="43.28883" lon="6.41961">
        <ele>347.909241</ele>
        <time>2013-11-06T16:38:56Z</time>
      </trkpt>
      <trkpt lat="43.28902" lon="6.42096">
        <ele>359.670013</ele>
        <time>2013-11-06T16:38:56Z</time>
      </trkpt>
      <trkpt lat="43.29011" lon="6.4222">
        <ele>385.36676</ele>
        <time>2013-11-06T16:38:56Z</time>
      </trkpt>
      <trkpt lat="43.2902" lon="6.42312">
        <ele>386.078796</ele>
        <time>2013-11-06T16:38:56Z</time>
      </trkpt>
      <trkpt lat="43.29061" lon="6.42432">
        <ele>386.29361</ele>
        <time>2013-11-06T16:38:56Z</time>
      </trkpt>
      <trkpt lat="43.2913" lon="6.42424">
        <ele>397.319275</ele>
        <time>2013-11-06T16:38:56Z</time>
      </trkpt>
      <trkpt lat="43.29217" lon="6.42441">
        <ele>398.678406</ele>
        <time>2013-11-06T16:38:56Z</time>
      </trkpt>
      <trkpt lat="43.29404" lon="6.42428">
        <ele>418.885345</ele>
        <time>2013-11-06T16:38:56Z</time>
      </trkpt>
      <trkpt lat="43.29447" lon="6.42423">
        <ele>420.802612</ele>
        <time>2013-11-06T16:38:56Z</time>
      </trkpt>
      <trkpt lat="43.29482" lon="6.42372">
        <ele>431.840546</ele>
        <time>2013-11-06T16:38:56Z</time>
      </trkpt>
      <trkpt lat="43.29595" lon="6.42397">
        <ele>440.294006</ele>
        <time>2013-11-06T16:38:56Z</time>
      </trkpt>
      <trkpt lat="43.29683" lon="6.42508">
        <ele>443.775024</ele>
        <time>2013-11-06T16:38:56Z</time>
      </trkpt>
      <trkpt lat="43.29702" lon="6.4249">
        <ele>450.582306</ele>
        <time>2013-11-06T16:38:56Z</time>
      </trkpt>
      <trkpt lat="43.29677" lon="6.42462">
        <ele>454.608704</ele>
        <time>2013-11-06T16:38:56Z</time>
      </trkpt>
      <trkpt lat="43.29635" lon="6.42367">
        <ele>462.237793</ele>
        <time>2013-11-06T16:38:56Z</time>
      </trkpt>
      <trkpt lat="43.2955" lon="6.4227">
        <ele>471.439514</ele>
        <time>2013-11-06T16:38:56Z</time>
      </trkpt>
      <trkpt lat="43.29463" lon="6.42151">
        <ele>477.245331</ele>
        <time>2013-11-06T16:38:56Z</time>
      </trkpt>
      <trkpt lat="43.29517" lon="6.4206">
        <ele>482.340637</ele>
        <time>2013-11-06T16:38:56Z</time>
      </trkpt>
      <trkpt lat="43.29603" lon="6.42126">
        <ele>497.349487</ele>
        <time>2013-11-06T16:38:56Z</time>
      </trkpt>
      <trkpt lat="43.29654" lon="6.42152">
        <ele>505.148438</ele>
        <time>2013-11-06T16:38:56Z</time>
      </trkpt>
      <trkpt lat="43.29704" lon="6.42116">
        <ele>509.921509</ele>
        <time>2013-11-06T16:38:56Z</time>
      </trkpt>
      <trkpt lat="43.29762" lon="6.41915">
        <ele>520.983521</ele>
        <time>2013-11-06T16:38:56Z</time>
      </trkpt>
      <trkpt lat="43.29769" lon="6.41817">
        <ele>523.447144</ele>
        <time>2013-11-06T16:38:56Z</time>
      </trkpt>
      <trkpt lat="43.29856" lon="6.41672">
        <ele>542.947632</ele>
        <time>2013-11-06T16:38:56Z</time>
      </trkpt>
      <trkpt lat="43.2989" lon="6.4157">
        <ele>551.462585</ele>
        <time>2013-11-06T16:38:56Z</time>
      </trkpt>
      <trkpt lat="43.29874" lon="6.41361">
        <ele>556.438721</ele>
        <time>2013-11-06T16:38:56Z</time>
      </trkpt>
      <trkpt lat="43.29914" lon="6.41218">
        <ele>567.718872</ele>
        <time>2013-11-06T16:38:56Z</time>
      </trkpt>
      <trkpt lat="43.29913" lon="6.41322">
        <ele>570.871277</ele>
        <time>2013-11-06T16:38:56Z</time>
      </trkpt>
      <trkpt lat="43.29899" lon="6.41376">
        <ele>568.105347</ele>
        <time>2013-11-06T16:38:56Z</time>
      </trkpt>
      <trkpt lat="43.29943" lon="6.41559">
        <ele>572.327271</ele>
        <time>2013-11-06T16:38:56Z</time>
      </trkpt>
      <trkpt lat="43.29988" lon="6.41628">
        <ele>571.066345</ele>
        <time>2013-11-06T16:38:56Z</time>
      </trkpt>
      <trkpt lat="43.30044" lon="6.4167">
        <ele>569.527161</ele>
        <time>2013-11-06T16:38:56Z</time>
      </trkpt>
      <trkpt lat="43.30044" lon="6.4167">
        <ele>569.527161</ele>
        <time>1999-11-30T00:00:00Z</time>
      </trkpt>
      <trkpt lat="43.30043" lon="6.41596">
        <ele>582.058472</ele>
        <time>1999-11-30T00:00:00Z</time>
      </trkpt>
      <trkpt lat="43.30108" lon="6.41528">
        <ele>589.373169</ele>
        <time>1999-11-30T00:00:00Z</time>
      </trkpt>
      <trkpt lat="43.30151" lon="6.41398">
        <ele>590.156738</ele>
        <time>1999-11-30T00:00:00Z</time>
      </trkpt>
      <trkpt lat="43.30198" lon="6.41312">
        <ele>581.835022</ele>
        <time>1999-11-30T00:00:00Z</time>
      </trkpt>
      <trkpt lat="43.30272" lon="6.41325">
        <ele>576.890991</ele>
        <time>1999-11-30T00:00:00Z</time>
      </trkpt>
      <trkpt lat="43.30347" lon="6.41339">
        <ele>560.125793</ele>
        <time>1999-11-30T00:00:00Z</time>
      </trkpt>
      <trkpt lat="43.30337" lon="6.41433">
        <ele>567.022949</ele>
        <time>1999-11-30T00:00:00Z</time>
      </trkpt>
      <trkpt lat="43.30421" lon="6.41516">
        <ele>544.384888</ele>
        <time>1999-11-30T00:00:00Z</time>
      </trkpt>
      <trkpt lat="43.30547" lon="6.41503">
        <ele>501.088745</ele>
        <time>1999-11-30T00:00:00Z</time>
      </trkpt>
      <trkpt lat="43.30628" lon="6.41432">
        <ele>498.467194</ele>
        <time>1999-11-30T00:00:00Z</time>
      </trkpt>
      <trkpt lat="43.30705" lon="6.41356">
        <ele>494.797577</ele>
        <time>1999-11-30T00:00:00Z</time>
      </trkpt>
      <trkpt lat="43.3083" lon="6.41378">
        <ele>494.485138</ele>
        <time>1999-11-30T00:00:00Z</time>
      </trkpt>
      <trkpt lat="43.30881" lon="6.41326">
        <ele>499.742249</ele>
        <time>1999-11-30T00:00:00Z</time>
      </trkpt>
      <trkpt lat="43.30913" lon="6.41239">
        <ele>495.698242</ele>
        <time>1999-11-30T00:00:00Z</time>
      </trkpt>
      <trkpt lat="43.31033" lon="6.41358">
        <ele>492.817505</ele>
        <time>1999-11-30T00:00:00Z</time>
      </trkpt>
      <trkpt lat="43.31149" lon="6.41444">
        <ele>473.153381</ele>
        <time>1999-11-30T00:00:00Z</time>
      </trkpt>
      <trkpt lat="43.31272" lon="6.4141">
        <ele>436.773163</ele>
        <time>1999-11-30T00:00:00Z</time>
      </trkpt>
      <trkpt lat="43.31396" lon="6.4135">
        <ele>410.214996</ele>
        <time>1999-11-30T00:00:00Z</time>
      </trkpt>
      <trkpt lat="43.31481" lon="6.41412">
        <ele>394.991241</ele>
        <time>1999-11-30T00:00:00Z</time>
      </trkpt>
      <trkpt lat="43.31561" lon="6.41443">
        <ele>382.657501</ele>
        <time>1999-11-30T00:00:00Z</time>
      </trkpt>
      <trkpt lat="43.3163" lon="6.41448">
        <ele>370.404541</ele>
        <time>1999-11-30T00:00:00Z</time>
      </trkpt>
      <trkpt lat="43.3174" lon="6.41417">
        <ele>350.660675</ele>
        <time>1999-11-30T00:00:00Z</time>
      </trkpt>
      <trkpt lat="43.3185" lon="6.41314">
        <ele>301.487518</ele>
        <time>1999-11-30T00:00:00Z</time>
      </trkpt>
      <trkpt lat="43.31983" lon="6.41268">
        <ele>273.194427</ele>
        <time>1999-11-30T00:00:00Z</time>
      </trkpt>
      <trkpt lat="43.32076" lon="6.4139">
        <ele>259.446472</ele>
        <time>1999-11-30T00:00:00Z</time>
      </trkpt>
      <trkpt lat="43.32236" lon="6.41517">
        <ele>234.706329</ele>
        <time>1999-11-30T00:00:00Z</time>
      </trkpt>
      <trkpt lat="43.32336" lon="6.4152">
        <ele>218.353394</ele>
        <time>1999-11-30T00:00:00Z</time>
      </trkpt>
      <trkpt lat="43.32346" lon="6.4158">
        <ele>211.280624</ele>
        <time>1999-11-30T00:00:00Z</time>
      </trkpt>
      <trkpt lat="43.32269" lon="6.41639">
        <ele>205.615067</ele>
        <time>1999-11-30T00:00:00Z</time>
      </trkpt>
      <trkpt lat="43.32216" lon="6.41712">
        <ele>194.162949</ele>
        <time>1999-11-30T00:00:00Z</time>
      </trkpt>
      <trkpt lat="43.32038" lon="6.4164">
        <ele>188.817337</ele>
        <time>1999-11-30T00:00:00Z</time>
      </trkpt>
      <trkpt lat="43.32065" lon="6.41834">
        <ele>169.138351</ele>
        <time>1999-11-30T00:00:00Z</time>
      </trkpt>
      <trkpt lat="43.32038" lon="6.41884">
        <ele>170.63913</ele>
        <time>1999-11-30T00:00:00Z</time>
      </trkpt>
      <trkpt lat="43.32051" lon="6.41966">
        <ele>165.001297</ele>
        <time>1999-11-30T00:00:00Z</time>
      </trkpt>
      <trkpt lat="43.32137" lon="6.42075">
        <ele>155.729156</ele>
        <time>1999-11-30T00:00:00Z</time>
      </trkpt>
      <trkpt lat="43.32229" lon="6.41884">
        <ele>149.499527</ele>
        <time>1999-11-30T00:00:00Z</time>
      </trkpt>
      <trkpt lat="43.3239" lon="6.41845">
        <ele>140.796249</ele>
        <time>1999-11-30T00:00:00Z</time>
      </trkpt>
      <trkpt lat="43.32502" lon="6.4175">
        <ele>136.895401</ele>
        <time>1999-11-30T00:00:00Z</time>
      </trkpt>
      <trkpt lat="43.32694" lon="6.41631">
        <ele>132.428741</ele>
        <time>1999-11-30T00:00:00Z</time>
      </trkpt>
      <trkpt lat="43.32912" lon="6.4142">
        <ele>121.342155</ele>
        <time>1999-11-30T00:00:00Z</time>
      </trkpt>
      <trkpt lat="43.33026" lon="6.41291">
        <ele>119.841232</ele>
        <time>1999-11-30T00:00:00Z</time>
      </trkpt>
      <trkpt lat="43.33247" lon="6.41221">
        <ele>116.035599</ele>
        <time>1999-11-30T00:00:00Z</time>
      </trkpt>
      <trkpt lat="43.33379" lon="6.41136">
        <ele>112.566254</ele>
        <time>1999-11-30T00:00:00Z</time>
      </trkpt>
      <trkpt lat="43.33423" lon="6.41204">
        <ele>112.272499</ele>
        <time>1999-11-30T00:00:00Z</time>
      </trkpt>
      <trkpt lat="43.3358" lon="6.41172">
        <ele>105.917252</ele>
        <time>1999-11-30T00:00:00Z</time>
      </trkpt>
      <trkpt lat="43.33564" lon="6.41098">
        <ele>104.93</ele>
        <time>2013-11-06T16:38:56Z</time>
      </trkpt>
      <trkpt lat="43.33584" lon="6.41018">
        <ele>102.659767</ele>
        <time>2013-11-06T16:38:56Z</time>
      </trkpt>
      <trkpt lat="43.33567" lon="6.40914">
        <ele>108.97065</ele>
        <time>2013-11-06T16:38:56Z</time>
      </trkpt>
      <trkpt lat="43.33593" lon="6.40858">
        <ele>109.376823</ele>
        <time>2013-11-06T16:38:56Z</time>
      </trkpt>
      <trkpt lat="43.33573" lon="6.40807">
        <ele>109.940002</ele>
        <time>2013-11-06T16:38:56Z</time>
      </trkpt>
      <trkpt lat="43.33533" lon="6.40748">
        <ele>110.212502</ele>
        <time>2013-11-06T16:38:56Z</time>
      </trkpt>
      <trkpt lat="43.33535" lon="6.40699">
        <ele>110.272499</ele>
        <time>2013-11-06T16:38:56Z</time>
      </trkpt>
      <trkpt lat="43.33603" lon="6.40528">
        <ele>111.855835</ele>
        <time>2013-11-06T16:38:56Z</time>
      </trkpt>
      <trkpt lat="43.33777" lon="6.40511">
        <ele>110.997375</ele>
        <time>2013-11-06T16:38:56Z</time>
      </trkpt>
      <trkpt lat="43.33955" lon="6.40544">
        <ele>107.014999</ele>
        <time>2013-11-06T16:38:56Z</time>
      </trkpt>
      <trkpt lat="43.3405" lon="6.40522">
        <ele>102.917503</ele>
        <time>2013-11-06T16:38:56Z</time>
      </trkpt>
      <trkpt lat="43.3421" lon="6.40568">
        <ele>101.869217</ele>
        <time>2013-11-06T16:38:56Z</time>
      </trkpt>
      <trkpt lat="43.34454" lon="6.40548">
        <ele>100.416275</ele>
        <time>2013-11-06T16:38:56Z</time>
      </trkpt>
      <trkpt lat="43.34565" lon="6.40555">
        <ele>98.434998</ele>
        <time>2013-11-06T16:38:56Z</time>
      </trkpt>
      <trkpt lat="43.34949" lon="6.40501">
        <ele>91.182381</ele>
        <time>2013-11-06T16:38:56Z</time>
      </trkpt>
      <trkpt lat="43.35342" lon="6.40453">
        <ele>91.900002</ele>
        <time>2013-11-06T16:38:56Z</time>
      </trkpt>
      <trkpt lat="43.35598" lon="6.40392">
        <ele>91.144875</ele>
        <time>2013-11-06T16:38:56Z</time>
      </trkpt>
      <trkpt lat="43.35726" lon="6.40173">
        <ele>88.828751</ele>
        <time>2013-11-06T16:38:56Z</time>
      </trkpt>
      <trkpt lat="43.35845" lon="6.40225">
        <ele>83.777496</ele>
        <time>2013-11-06T16:38:56Z</time>
      </trkpt>
      <trkpt lat="43.3589" lon="6.39947">
        <ele>76.864998</ele>
        <time>2013-11-06T16:38:56Z</time>
      </trkpt>
      <trkpt lat="43.35937" lon="6.395">
        <ele>72.800003</ele>
        <time>2013-11-06T16:38:56Z</time>
      </trkpt>
      <trkpt lat="43.35957" lon="6.39247">
        <ele>76.035767</ele>
        <time>2013-11-06T16:38:56Z</time>
      </trkpt>
      <trkpt lat="43.36025" lon="6.39035">
        <ele>79.870003</ele>
        <time>2013-11-06T16:38:56Z</time>
      </trkpt>
      <trkpt lat="43.36084" lon="6.38838">
        <ele>82</ele>
        <time>2013-11-06T16:38:56Z</time>
      </trkpt>
      <trkpt lat="43.36086" lon="6.38613">
        <ele>82.209343</ele>
        <time>2013-11-06T16:38:56Z</time>
      </trkpt>
      <trkpt lat="43.36149" lon="6.38348">
        <ele>83.074997</ele>
        <time>2013-11-06T16:38:56Z</time>
      </trkpt>
      <trkpt lat="43.36244" lon="6.38091">
        <ele>80.278229</ele>
        <time>2013-11-06T16:38:56Z</time>
      </trkpt>
      <trkpt lat="43.36349" lon="6.37912">
        <ele>80.927498</ele>
        <time>2013-11-06T16:38:56Z</time>
      </trkpt>
      <trkpt lat="43.36469" lon="6.3778">
        <ele>82.636505</ele>
        <time>2013-11-06T16:38:56Z</time>
      </trkpt>
      <trkpt lat="43.36554" lon="6.37622">
        <ele>86</ele>
        <time>2013-11-06T16:38:56Z</time>
      </trkpt>
      <trkpt lat="43.36652" lon="6.37412">
        <ele>87.91375</ele>
        <time>2013-11-06T16:38:56Z</time>
      </trkpt>
      <trkpt lat="43.36844" lon="6.37235">
        <ele>90.995003</ele>
        <time>2013-11-06T16:38:56Z</time>
      </trkpt>
      <trkpt lat="43.37043" lon="6.37007">
        <ele>92</ele>
        <time>2013-11-06T16:38:56Z</time>
      </trkpt>
      <trkpt lat="43.3727" lon="6.36739">
        <ele>92.552498</ele>
        <time>2013-11-06T16:38:56Z</time>
      </trkpt>
      <trkpt lat="43.37379" lon="6.36627">
        <ele>86.904182</ele>
        <time>2013-11-06T16:38:56Z</time>
      </trkpt>
      <trkpt lat="43.37571" lon="6.36508">
        <ele>79.996162</ele>
        <time>2013-11-06T16:38:56Z</time>
      </trkpt>
      <trkpt lat="43.37785" lon="6.36345">
        <ele>87.371254</ele>
        <time>2013-11-06T16:38:56Z</time>
      </trkpt>
      <trkpt lat="43.38016" lon="6.36153">
        <ele>100.309998</ele>
        <time>2013-11-06T16:38:56Z</time>
      </trkpt>
      <trkpt lat="43.38208" lon="6.35933">
        <ele>106.219376</ele>
        <time>2013-11-06T16:38:56Z</time>
      </trkpt>
      <trkpt lat="43.38276" lon="6.35923">
        <ele>107.280655</ele>
        <time>2013-11-06T16:38:56Z</time>
      </trkpt>
      <trkpt lat="43.38412" lon="6.35962">
        <ele>109.725624</ele>
        <time>2013-11-06T16:38:56Z</time>
      </trkpt>
      <trkpt lat="43.38467" lon="6.36012">
        <ele>106.384109</ele>
        <time>2013-11-06T16:38:56Z</time>
      </trkpt>
      <trkpt lat="43.38561" lon="6.3601">
        <ele>107.459999</ele>
        <time>2013-11-06T16:38:56Z</time>
      </trkpt>
      <trkpt lat="43.38646" lon="6.35917">
        <ele>110.580833</ele>
        <time>2013-11-06T16:38:56Z</time>
      </trkpt>
      <trkpt lat="43.38751" lon="6.35789">
        <ele>105.686249</ele>
        <time>2013-11-06T16:38:56Z</time>
      </trkpt>
      <trkpt lat="43.38992" lon="6.35733">
        <ele>98.947502</ele>
        <time>2013-11-06T16:38:56Z</time>
      </trkpt>
      <trkpt lat="43.39024" lon="6.35686">
        <ele>99.612503</ele>
        <time>2013-11-06T16:38:56Z</time>
      </trkpt>
      <trkpt lat="43.38985" lon="6.35589">
        <ele>100.08522</ele>
        <time>2013-11-06T16:38:56Z</time>
      </trkpt>
      <trkpt lat="43.38997" lon="6.35488">
        <ele>100.411156</ele>
        <time>2013-11-06T16:38:56Z</time>
      </trkpt>
      <trkpt lat="43.38989" lon="6.35429">
        <ele>101.438454</ele>
        <time>2013-11-06T16:38:56Z</time>
      </trkpt>
      <trkpt lat="43.39018" lon="6.35381">
        <ele>100.647911</ele>
        <time>2013-11-06T16:38:56Z</time>
      </trkpt>
      <trkpt lat="43.38996" lon="6.35297">
        <ele>104.133873</ele>
        <time>2013-11-06T16:38:56Z</time>
      </trkpt>
      <trkpt lat="43.3896" lon="6.35108">
        <ele>106.260468</ele>
        <time>2013-11-06T16:38:56Z</time>
      </trkpt>
      <trkpt lat="43.38931" lon="6.34874">
        <ele>109.749878</ele>
        <time>2013-11-06T16:38:56Z</time>
      </trkpt>
      <trkpt lat="43.38811" lon="6.34532">
        <ele>118</ele>
        <time>2013-11-06T16:38:56Z</time>
      </trkpt>
      <trkpt lat="43.38847" lon="6.34476">
        <ele>119.346535</ele>
        <time>2013-11-06T16:38:56Z</time>
      </trkpt>
      <trkpt lat="43.38886" lon="6.34403">
        <ele>120.096176</ele>
        <time>2013-11-06T16:38:56Z</time>
      </trkpt>
      <trkpt lat="43.38925" lon="6.34385">
        <ele>121.536346</ele>
        <time>2013-11-06T16:38:56Z</time>
      </trkpt>
      <trkpt lat="43.38907" lon="6.34286">
        <ele>122.0075</ele>
        <time>2013-11-06T16:38:56Z</time>
      </trkpt>
      <trkpt lat="43.38932" lon="6.34228">
        <ele>123.482498</ele>
        <time>2013-11-06T16:38:56Z</time>
      </trkpt>
      <trkpt lat="43.3898" lon="6.34236">
        <ele>124.504997</ele>
        <time>2013-11-06T16:38:56Z</time>
      </trkpt>
    </trkseg>
  </trk>
</gpx>